This is the latest recevied weather packets stored in our database for station/object F5ZQC-13. If no packets are shown the sender has not sent any weather packets the latest 1 day(s).
| Time | Temp. | Humidity | Pressure | Rain* | Wind** | Luminosity | Snow |
|---|---|---|---|---|---|---|---|
| 1778003232 | 13.33° C | 56% | 1009.9 hPa | 0 mm | 1.79 m/s, 258° | - | - |
| 1778003110 | 13.33° C | 56% | 1009.4 hPa | 0 mm | 1.79 m/s, 337° | - | - |
| 1778002988 | 13.33° C | 56% | 1009.8 hPa | 0 mm | 2.24 m/s, 337° | - | - |
| 1778002866 | 13.33° C | 56% | 1010 hPa | 0 mm | 2.24 m/s, 337° | - | - |
| 1778002621 | 13.33° C | 57% | 1010.2 hPa | 0 mm | 1.34 m/s, 348° | - | - |
| 1778002131 | 13.33° C | 57% | 1010.1 hPa | 0 mm | 1.34 m/s, 337° | - | - |
| 1778001887 | 13.33° C | 57% | 1010 hPa | 0 mm | 1.34 m/s, 337° | - | - |
| 1778001642 | 13.33° C | 54% | 1009.7 hPa | 0 mm | 2.68 m/s, 315° | - | - |
| 1778001520 | 13.33° C | 56% | 1009.9 hPa | 0 mm | 1.79 m/s, 337° | - | - |
| 1778001398 | 13.33° C | 55% | 1009.8 hPa | 0 mm | 1.34 m/s, 292° | - | - |
| 1778001153 | 13.33° C | 55% | 1010 hPa | 0 mm | 1.79 m/s, 348° | - | - |
| 1778001031 | 13.33° C | 55% | 1009.9 hPa | 0 mm | 1.34 m/s, 315° | - | - |
| 1778000787 | 13.33° C | 56% | 1010 hPa | 0 mm | 2.24 m/s, 337° | - | - |
| 1778000665 | 13.33° C | 64% | 1009.9 hPa | 0 mm | 1.34 m/s, 315° | - | - |
| 1778000542 | 13.33° C | 56% | 1009.9 hPa | 0 mm | 2.24 m/s, 337° | - | - |
| 1778000174 | 13.33° C | 55% | 1010.1 hPa | 0 mm | 1.79 m/s, 337° | - | - |
| 1778000055 | 13.33° C | 55% | 1010.2 hPa | 0 mm | 2.24 m/s, 348° | - | - |
| 1777999837 | 13.33° C | 57% | 1010.2 hPa | 9.14 mm | 2.68 m/s, 337° | - | - |
| 1777999593 | 13.33° C | 55% | 1010.2 hPa | 9.14 mm | 2.68 m/s, 258° | - | - |
| 1777999505 | 13.33° C | 55% | 1009.9 hPa | 9.14 mm | 2.68 m/s, 315° | - | - |
| 1777999471 | 13.33° C | 55% | 1009.9 hPa | 9.14 mm | 2.68 m/s, 315° | - | - |
| 1777999226 | 13.33° C | 55% | 1010.4 hPa | 9.14 mm | 0.89 m/s, 337° | - | - |
| 1777998982 | 13.33° C | 55% | 1009.9 hPa | 9.14 mm | 1.79 m/s, 315° | - | - |
| 1777998737 | 13.33° C | 55% | 1010.4 hPa | 9.14 mm | 1.79 m/s, 337° | - | - |
| 1777998493 | 13.33° C | 55% | 1010.1 hPa | 8.89 mm | 3.58 m/s, 337° | - | - |
* Rain since midnight (hover to see other rain measurements)
** Current wind speed in m/s (hover to see current wind gust speed)